LAKE WOODRUFF QD FL US current weather conditions

sailwx.info

Wind from 216 at 1 knots gusting 5

Air temperature 23.9° C
Dewpoint 23.2° C

Last reported at 2019-Jul-24 03:59 UTC.
Time now 2019-Jul-24 04:20 UTC

Location: N 27°03' W 080°07'.
View on Google Maps.

See reports from other nearby stations

  
Tides and Currents Weather Stations Pressure Air Temp Water Temp Dewpoint Dewpoint Depression Visibility Wind Speed Wind Dir Waves Ship Positions
date/time (UTC)wind fromknots sea level pressurealtimeterstation pressurevisibilityair tempwater tempwave heightnotes
2019-Jul-24 03:59 216 1 gusting 5 23.9
2019-Jul-24 02:59 213 4 gusting 6 23.9
2019-Jul-24 01:59 215 2 gusting 4 23.9
2019-Jul-24 00:59 199 0 gusting 3 23.9
2019-Jul-23 23:59 192 0 gusting 6 23.3
2019-Jul-23 22:59 196 2 gusting 16 23.3
2019-Jul-23 17:59 219 6 gusting 12 35.0
2019-Jul-23 16:59 208 6 gusting 11 34.4
2019-Jul-23 15:59 226 6 gusting 11 33.3
2019-Jul-23 14:59 230 5 gusting 9 32.2
2019-Jul-23 13:59 214 4 gusting 8 29.4
2019-Jul-23 12:59 229 3 gusting 6 26.1
2019-Jul-23 11:59 179 1 gusting 5 23.3
2019-Jul-23 10:59 247 3 gusting 5 23.3
2019-Jul-23 09:59 269 1 gusting 3 23.9
2019-Jul-23 08:59 273 2 gusting 4 24.4
2019-Jul-23 07:59 280 2 gusting 6 24.4
2019-Jul-23 06:59 271 2 gusting 6 24.4
2019-Jul-23 05:59 266 1 gusting 5 25.0
2019-Jul-23 04:59 276 2 gusting 5 25.6
2019-Jul-23 03:59 273 1 gusting 2 25.6
2019-Jul-23 02:59 26.1
2019-Jul-23 01:59 249 0 gusting 4 26.1
2019-Jul-23 00:59 134 2 gusting 5 26.7
2019-Jul-22 23:59 163 1 gusting 7 27.2
2019-Jul-22 22:59 113 5 gusting 13 27.8
2019-Jul-22 21:59 099 7 gusting 17 27.8
2019-Jul-22 20:59 084 7 gusting 13 30.0
2019-Jul-22 19:59 085 6 gusting 16 29.4
2019-Jul-22 18:59 081 8 gusting 13 31.1
2019-Jul-22 17:59 084 6 gusting 11 32.8
2019-Jul-22 16:59 076 6 gusting 12 32.2
2019-Jul-22 15:59 086 5 gusting 9 32.2
2019-Jul-22 14:59 091 6 gusting 9 31.7
2019-Jul-22 13:59 072 4 gusting 7 31.7
2019-Jul-22 12:59 336 1 gusting 5 29.4
2019-Jul-22 11:59 331 2 gusting 5 26.7
2019-Jul-22 10:59 314 1 gusting 3 24.4
2019-Jul-22 09:59 317 0 gusting 4 24.4
2019-Jul-22 08:59 323 2 gusting 4 24.4
2019-Jul-22 07:59 307 2 gusting 4 24.4
2019-Jul-22 06:59 284 1 gusting 2 23.9
2019-Jul-22 05:59 005 0 gusting 3 24.4
2019-Jul-22 04:59 274 0 gusting 4 24.4